TimeCST,TemperatureF,Dew PointF,Humidity,Sea Level PressureIn,VisibilityMPH,Wind Direction,Wind SpeedMPH,Gust SpeedMPH,PrecipitationIn,Events,Conditions,WindDirDegrees,DateUTC
12:04 AM,55.4,53.6,94,29.78,5.0,NW,9.2,-,0.04,Rain-Thunderstorm,Rain,310,2013-01-13 06:04:00
12:10 AM,55.4,51.8,88,29.78,6.0,NW,9.2,-,0.05,Rain,Heavy Rain,320,2013-01-13 06:10:00
12:25 AM,53.6,51.8,94,29.78,4.0,NW,6.9,-,N/A,Rain-Thunderstorm,Heavy Rain,320,2013-01-13 06:25:00
12:40 AM,51.8,48.2,88,29.78,5.0,NW,9.2,-,0.14,Rain,Heavy Rain,320,2013-01-13 06:40:00
12:54 AM,50.0,46.9,89,29.78,9.0,NW,9.2,-,0.17,Rain,Heavy Rain,310,2013-01-13 06:54:00
1:06 AM,48.2,46.4,93,29.82,5.0,West,9.2,-,0.02,Rain-Thunderstorm,Heavy Rain,280,2013-01-13 07:06:00
1:32 AM,46.4,44.6,93,29.86,5.0,WNW,17.3,24.2,0.13,Rain,Heavy Rain,290,2013-01-13 07:32:00
1:54 AM,45.0,42.1,90,29.86,6.0,NW,15.0,21.9,0.22,Rain,Rain,310,2013-01-13 07:54:00
2:01 AM,44.6,41.0,87,29.87,5.0,WNW,17.3,21.9,0.03,Rain,Heavy Rain,300,2013-01-13 08:01:00
2:22 AM,44.6,39.2,81,29.86,5.0,NNW,10.4,21.9,0.15,Rain-Thunderstorm,Heavy Rain,340,2013-01-13 08:22:00
2:31 AM,42.8,39.2,87,29.86,6.0,NNW,10.4,18.4,0.19,Rain,Rain,330,2013-01-13 08:31:00
2:54 AM,42.1,39.0,89,29.86,6.0,NNW,9.2,-,0.26,Rain,Heavy Rain,330,2013-01-13 08:54:00
3:09 AM,41.0,37.4,87,29.88,7.0,NNW,11.5,18.4,0.05,Rain,Heavy Rain,340,2013-01-13 09:09:00
3:54 AM,39.0,36.0,89,29.87,8.0,North,9.2,-,0.20,Rain,Rain,360,2013-01-13 09:54:00
4:14 AM,39.2,35.6,87,29.88,7.0,North,10.4,-,0.03,Rain,Rain,10,2013-01-13 10:14:00
4:29 AM,39.2,35.6,87,29.89,7.0,Variable,3.5,-,0.07,Rain,Rain,0,2013-01-13 10:29:00
4:54 AM,37.9,35.1,89,29.91,5.0,NW,3.5,-,0.15,Rain,Heavy Rain,320,2013-01-13 10:54:00
5:45 AM,37.4,35.6,93,29.89,8.0,NE,6.9,-,0.10,Rain,Rain,40,2013-01-13 11:45:00
5:54 AM,37.9,35.1,89,29.91,9.0,NNW,8.1,-,0.11,Rain,Rain,330,2013-01-13 11:54:00
6:01 AM,37.4,35.6,93,29.90,8.0,North,4.6,-,0.01,Rain,Rain,360,2013-01-13 12:01:00
6:54 AM,37.9,35.1,89,29.96,8.0,NNW,8.1,-,0.02,Rain,Light Rain,330,2013-01-13 12:54:00
7:29 AM,37.4,35.6,93,29.98,2.0,NW,10.4,-,0.00,Rain,Light Rain,320,2013-01-13 13:29:00
7:43 AM,37.4,35.6,93,29.96,1.0,North,4.6,-,0.00,Rain,Light Rain,360,2013-01-13 13:43:00
7:54 AM,37.9,35.1,89,29.96,1.0,NW,5.8,-,0.00,Rain,Light Rain,310,2013-01-13 13:54:00
7:58 AM,37.4,35.6,93,29.97,2.0,NW,8.1,-,0.00,Rain,Light Rain,310,2013-01-13 13:58:00
8:15 AM,37.4,35.6,93,29.96,3.0,NNW,8.1,-,0.00,Rain,Light Rain,330,2013-01-13 14:15:00
8:54 AM,37.9,34.0,86,29.97,7.0,NNW,8.1,17.3,0.01,Rain,Light Rain,330,2013-01-13 14:54:00
9:34 AM,37.4,35.6,93,29.97,2.0,NNW,8.1,-,0.00,Rain,Light Rain,330,2013-01-13 15:34:00
9:50 AM,37.4,35.6,93,29.99,4.0,NW,8.1,-,0.00,Rain,Light Rain,310,2013-01-13 15:50:00
9:54 AM,37.9,35.1,89,29.99,6.0,NNW,9.2,16.1,0.00,Rain,Light Rain,330,2013-01-13 15:54:00
10:36 AM,37.4,33.8,87,29.95,2.5,NNE,9.2,-,0.03,Rain,Heavy Rain,30,2013-01-13 16:36:00
10:39 AM,37.4,33.8,87,29.96,2.5,NNE,9.2,-,0.04,Rain,Heavy Rain,20,2013-01-13 16:39:00
10:42 AM,37.4,33.8,87,29.97,3.0,NNW,9.2,-,0.05,Rain,Rain,330,2013-01-13 16:42:00
10:54 AM,37.0,34.0,89,29.95,4.0,North,6.9,-,0.07,Rain,Rain,350,2013-01-13 16:54:00
11:54 AM,36.0,33.1,89,29.95,4.0,NW,10.4,-,0.11,Rain,Heavy Rain,320,2013-01-13 17:54:00
12:54 PM,34.0,30.0,85,29.98,5.0,NNW,11.5,23.0,0.18,Rain,Heavy Rain,340,2013-01-13 18:54:00
1:21 PM,33.8,28.4,81,29.99,2.0,NW,13.8,24.2,N/A,Rain,Heavy Rain,320,2013-01-13 19:21:00
1:43 PM,33.8,28.4,81,29.98,3.0,NNW,16.1,23.0,0.11,Rain,Light Rain,330,2013-01-13 19:43:00
1:54 PM,33.1,28.0,82,30.01,6.0,NNW,10.4,21.9,0.12,Rain,Light Rain,340,2013-01-13 19:54:00
2:24 PM,33.8,28.4,81,30.00,6.0,NNW,8.1,-,0.01,Rain,Light Rain,340,2013-01-13 20:24:00
2:35 PM,33.8,28.4,81,30.02,8.0,NNW,12.7,19.6,0.01,Rain,Light Rain,340,2013-01-13 20:35:00
2:54 PM,33.1,28.9,85,30.06,5.0,NW,12.7,-,0.01,Rain,Light Rain,320,2013-01-13 20:54:00
3:54 PM,33.1,28.0,82,30.09,10.0,NW,12.7,21.9,0.01,,Overcast,320,2013-01-13 21:54:00
4:54 PM,30.9,27.0,85,30.14,10.0,NW,13.8,19.6,N/A,,Overcast,310,2013-01-13 22:54:00
5:54 PM,30.9,25.0,79,30.18,10.0,NW,12.7,-,N/A,,Overcast,310,2013-01-13 23:54:00
6:54 PM,28.9,21.9,75,30.21,10.0,NW,18.4,25.3,N/A,,Overcast,320,2013-01-14 00:54:00
7:54 PM,28.0,21.0,75,30.23,10.0,NW,12.7,-,N/A,,Partly Cloudy,310,2013-01-14 01:54:00
8:13 PM,28.4,21.2,74,30.22,10.0,NW,10.4,-,N/A,,Mostly Cloudy,320,2013-01-14 02:13:00
8:33 PM,28.4,21.2,74,30.23,10.0,NW,15.0,20.7,N/A,,Scattered Clouds,320,2013-01-14 02:33:00
8:54 PM,27.0,21.0,78,30.25,10.0,NW,10.4,-,N/A,,Scattered Clouds,310,2013-01-14 02:54:00
9:54 PM,26.1,19.0,75,30.28,10.0,NNW,13.8,19.6,N/A,,Clear,330,2013-01-14 03:54:00
10:11 PM,26.6,19.4,74,30.27,10.0,NW,10.4,17.3,N/A,,Mostly Cloudy,320,2013-01-14 04:11:00
10:54 PM,26.1,19.9,78,30.31,10.0,NNW,6.9,-,N/A,,Overcast,340,2013-01-14 04:54:00
11:54 PM,25.0,18.0,75,30.33,10.0,NNW,9.2,-,N/A,,Scattered Clouds,340,2013-01-14 05:54:00